Flag for Netherlands Weather past 2 weeks in Kralendijk (Bonaire), Netherlands

Now
82 °F

Warm.


Feels Like: 89 °F
Forecast: 81 / 89 °F
Wind: 8 mph from East

Location: Flamingo Airport - Bonaire

Current Time: Oct 26, 2014 at 2:00:01 AM

Latest Report: Oct 26, 2014 at 1:00 AM


Visibility: N/A

Pressure: 29.80 "Hg

Humidity: 79%

Dew point: 75 °F

Location of Kralendijk (Bonaire)Location

Historic Weather in Kralendijk (Bonaire) — Graph

°F

Kralendijk (Bonaire) temperature yesterday

Maximum temperature yesterday: 90 °F (at 11:00 AM)
Minimum temperature yesterday: 82 °F (at 12:00 AM)
Average temperature yesterday: 85 °F

Past Weeks' High & Low Weather Summary

 TemperatureHumidityPressure
High91 °F (Oct 13, 1:00 PM)89% (Oct 15, 12:00 AM)29.95 "Hg (Oct 15, 12:00 AM)
Low81 °F (Oct 11, 1:00 AM)59% (Oct 13, 1:00 PM)29.74 "Hg (Oct 24, 5:00 PM)
Average85 °F74%29.86 "Hg
* Reported Midnight between Oct 10 and Oct 11 — Midnight between Oct 25 and Oct 26, Kralendijk (Bonaire), Weather by CustomWeather, © 2014

Note: Actual official high and low records may vary slightly from our data, if they occured in-between our weather recording intervals... More about our weather records

Advertising

Kralendijk (Bonaire) weather history for previous 24 hours

 ConditionsComfort  
Time TempWeatherWind HumidityBarometerVisibility
12:00 AM
Oct 26
82 °FWarm.9 mph79%29.83 "HgN/A
10:00 PM
Oct 25
82 °FWarm.10 mph79%29.86 "HgN/A
9:00 PM84 °FWarm.14 mph74%29.86 "HgN/A
8:00 PM84 °FPassing clouds.13 mph74%29.83 "HgN/A
7:00 PM84 °FPassing clouds.13 mph74%29.80 "HgN/A
6:00 PM84 °FWarm.17 mph74%29.77 "HgN/A
5:00 PM88 °FWarm.16 mph70%29.77 "HgN/A
4:00 PM88 °FWarm.15 mph66%29.77 "HgN/A
3:00 PM90 °FScattered clouds.15 mph63%29.80 "HgN/A
2:00 PM90 °FHot.15 mph63%29.83 "HgN/A
1:00 PM90 °FHot.15 mph63%29.86 "HgN/A
12:00 PM90 °FHot.16 mph63%29.86 "HgN/A
11:00 AM90 °FHot.16 mph63%29.89 "HgN/A
10:00 AM88 °FWarm.15 mph70%29.89 "HgN/A
9:00 AM86 °FWarm.16 mph70%29.89 "HgN/A
8:00 AM84 °FScattered clouds.14 mph74%29.86 "HgN/A
7:00 AM82 °FWarm.13 mph79%N/AN/A
6:00 AM82 °FWarm.12 mph79%29.80 "HgN/A
4:00 AM82 °FWarm.14 mph79%29.80 "HgN/A
3:00 AM82 °FWarm.16 mph74%29.77 "HgN/A
2:00 AM82 °FWarm.15 mph79%29.80 "HgN/A
Weather by CustomWeather, © 2014

See weather overviewHow to use our weather pages